RESURS O1 DEB, 23346

Orbit data source: Space-Track

RESURS O1 DEB, 23346 is space debris in SSO originally from a launch on Fri, 04 Nov 1994 UTC launched from the Tyuratam Missile And Space Complex (TTMTR). Debris objects in space refer to the collection of defunct objects orbiting the Earth. Examples of debris include non-operational satellites, rocket bodies, and fragments generated from explosions, collisions, or faulty payload assembly.

Loading next visibility...
Identifier
23346, 1994-074E
Orbit
SSO
Country
Flag of CISCIS
Related business
Manufacturer
Yuzhnoe
Mission
Spacecraft
Bus & Motor
SEP MOTOR COVER, Unknown motor
Mass
~0 kg wet, ~1 kg dry
Launch date (UTC)
1994-11-04 (31 years ago)
Launch vehicle
Unknown
Launch site
Tyuratam Missile And Space Complex (TTMTR)
Object type
Payload
Rocket body
Debris
Shape & HBR
Unknown
Radar Cross Section
Small (<0.1 m²)

Expand to show TLE details & history
Last TLE update: 7 hours ago

TLE from 7 hours ago
0 RESURS O1 DEB
1 23346U 94074E   25286.91861167  .00001376  00000-0  39931-3 0  9999
2 23346  98.4707  23.6986 0171670  97.9024 264.1686 14.37703730615776
Epoch: 2025-10-13T22:02Z
TLE epoch observation values (Epoch: 2025-10-13T22:02:48.048Z)
Latitude
Longitude
30.2839°
Altitude
783.585 km
Speed
7.454 km/s
True Right ascension
01h 34m 47s
True Declination
0° 00' 00"
Sunlit
Object was in full shadow at epoch
Visualization orbit readout
Latitude
Unknown
Longitude
Unknown
Altitude
Unknown
Speed
Unknown
Apparent Right ascension
Unknown
Apparent Declination
Unknown
Sunlit
N/A
Visualization observer readout
Local Sidereal Time
00:03:40
Azimuth
Unknown
Elevation
Unknown
Doppler factor
Unknown
Orbital elements
Apogee altitude
885.813 km
Perigee altitude
640.622 km
Semi-major axis
7,141.355 km
Eccentricity
0.01717
Inclination
98.4707°
RAAN
23.6986°
Arg. of periapsis
97.9024°
True anomaly
262.21622°
Mean anomaly
264.1686°
Eccentric anomaly
263.19194°
Mean motion
3.59644 °/min
Orbital period
100.1 mins
BSTAR
0.00039931
Loading maneuver chart data...
Computing Atmospheric mass density...

Documentation

Showing up to 5 results
|